Regional Weather Roundup
Issued by NWS Sterling, VA

Home | Current Version | Previous Version | Text Only | Print | Product List | Glossary Off
Versions: 1 2 3 4 5 6 7 8 9 10 11 12 13 14 15 16 17 18 19 20 21 22 23 24 25 26 27 28 29 30 31 32 33 34 35 36 37 38 39 40 41 42

000
ASUS41 KLWX 251810
RWRLWX

REGIONAL WEATHER ROUNDUP
NATIONAL WEATHER SERVICE BALTIMORE MD/WASHINGTON DC
100 PM EST THU DEC 25 2014

Note: "FAIR" indicates few or no clouds below 12,000 feet
with no significant weather and/or obstructions to visibility.
 TC=TEMPERATURE CELSIUS

 * =Non NWS site. Station does not report precipitation (e.g. rain,
    snow, etc.), thunder, or fog.

DCZ001-MDZ009-015-VAZ040>042-051-053>054-251900-
WASHINGTON METRO

CITY           SKY/WX    TMP DP  RH WIND       PRES   REMARKS
WASHINGTON NAT PTSUNNY   55  30  38 NW17G24   29.97R
DULLES         PTSUNNY   50  31  48 W17G26    29.96R
ANDREWS AFB    MOSUNNY   52  30  43 NW22G32   29.95R
FT BELVOIR     PTSUNNY   55  30  38 NW22G35   29.97R
QUANTICO       MOSUNNY   55  29  36 NW17G28   29.98R
COLLEGE PARK*  CLOUDY    52  32  46 W15G26    29.95R
LEESBURG*      MOSUNNY   50  34  53 W14G25    29.97R
GAITHERSBURG*  CLOUDY    48  30  49 W15G29    29.98R

$$

MDZ006>007-011-014-251900-
BALTIMORE METRO

CITY           SKY/WX    TMP DP  RH WIND       PRES   REMARKS
BWI AIRPORT    PTSUNNY   51  31  46 W18G28    29.93R
MD SCIENCE CTR   N/A     52  29  41 MISG      29.94R
MARTIN STATE   PTSUNNY   54  34  47 W20G28    29.95R
ANNAPOLIS      PTSUNNY   51  29  42 W16G30    29.95R
FORT MEADE*    CLOUDY    50  32  50 W17G33    29.97R

$$

MDZ012-015-019>023-251900-
MARYLAND EASTERN SHORE

CITY           SKY/WX    TMP DP  RH WIND       PRES   REMARKS
OCEAN CITY     SUNNY     54  33  45 NW17G32   29.92R
SALISBURY      SUNNY     57  32  38 W17G25    29.93R
BAY BRIDGE AP*   N/A     52  32  46 W21G26    29.95R
CAMBRIDGE*     PTSUNNY   54  32  43 NW16G26   29.95R
EASTON*        MOSUNNY   55  34  44 NW15G25   29.98R

$$

MDZ017>025-251900-
SOUTHERN MARYLAND

CITY           SKY/WX    TMP DP  RH WIND       PRES   REMARKS
PATUXENT RIVER PTSUNNY   53  32  44 NW16      29.96R
ST INIGOES     SUNNY     55  33  43 W15       29.96R
LEONARDTOWN*   MOSUNNY   52  30  43 MISG      29.97R

$$

MDZ003>005-251900-
NORTH CENTRAL MARYLAND

CITY           SKY/WX    TMP DP  RH WIND       PRES   REMARKS
FREDERICK*     PTSUNNY   54  28  37 NW17G29   29.98R
HAGERSTOWN APT CLOUDY    48  29  47 W21G30    29.95R
WESTMINSTER*   CLOUDY    48  34  57 W13       29.92R

$$

MDZ501>502-251900-
WESTERN MARYLAND

CITY           SKY/WX    TMP DP  RH WIND       PRES   REMARKS
OAKLAND*       CLOUDY    32 N/A N/A W15G32    29.93R WCI  22
CUMBERLAND*    PTSUNNY   46  32  57 NW12G28   30.02R

$$

VAZ025>031-251900-
SHENANDOAH VALLEY

CITY           SKY/WX    TMP DP  RH WIND       PRES   REMARKS
WINCHESTER*    PTSUNNY   52  28  40 NW20G25   29.96R
FRONT ROYAL*   MOCLDY    50  32  50 W8G20     29.96R
LURAY*         FAIR      54  32  43 W9G17     29.97S
NEW MARKET*    MOCLDY    50  30  45 SW10      29.97R
STAUNTON*      MOSUNNY   51  28  41 W10       30.00S
WAYNESBORO*    FAIR      48  29  47 W10G17    29.99S

$$

WVZ021-048>050-054>055-251900-
EASTERN WEST VIRGINIA PANHANDLE

CITY           SKY/WX    TMP DP  RH WIND       PRES   REMARKS
MARTINSBURG    PTSUNNY   52  29  41 W25       29.96R
PETERSBURG*    MOSUNNY   46  26  46 W16G31    30.02R

$$

VAZ036>039-050-251900-
CENTRAL FOOTHILLS

CITY           SKY/WX    TMP DP  RH WIND       PRES   REMARKS
CHARLOTTESVILL MOSUNNY   53  29  39 VRB7      29.98S
CULPEPER*      SUNNY     55  30  38 NW13      29.98R
ORANGE*        SUNNY     55  32  41 W15       30.00R
GORDONSVILLE*  FAIR      53  29  40 W8G18     29.99R
WARRENTON*     FAIR      55  37  51 NW13      29.97R

$$

VAZ055>057-251900-
NORTH AND CENTRAL PIEDMONT

CITY           SKY/WX    TMP DP  RH WIND       PRES   REMARKS
FREDERICKSBRG* MOSUNNY   56  31  38 W12G17    29.97R
STAFFORD*      PTSUNNY   53  26  35 CALM      30.02R

$$

NCZ024-NYZ072-PAZ021-071-VAZ022-071-251900-
OTHER REGIONAL OBSERVATIONS

CITY           SKY/WX    TMP DP  RH WIND       PRES   REMARKS
NEW YORK CITY  PTSUNNY   52  27  38 NW13G22   29.81R
PHILADELPHIA   PTSUNNY   53  30  41 W26G39    29.89R
PITTSBURGH     CLOUDY    39  31  72 W15G21    30.00R
ROANOKE        MOSUNNY   48  29  47 NW16G28   30.08R
RICHMOND       MOSUNNY   58  31  35 W15G22    29.98S
RALEIGH        MOSUNNY   56  34  43 VRB5G17   30.06S

$$

ANZ530>537-251900-
MARINE OBSERVATIONS

STATION/POSITION TIME  TEMP    WIND        PRES
                       AIR SEA DIR/SP/G
                 (UTC) (F)     (DEG/KT/KT) (MB)
THOMAS PT LIGHT  1800   51 43  300/ 18/ 20 1015.1R
BALT KEY BRIDGE  1800   51     260/ 21/ 25 1013.2R
COVE POINT       1800   51     340/ 19/ 23 1014.4R
LEWISETTA        1800   53 44  320/ 12/ 18 1014.5R
SOLOMONS ISLAND  1800      44                N/A
PINEY POINT      1800          310/ 13/ 14   N/A

$$




USA.gov is the U.S. government's official web portal to all federal, state and local government web resources and services.